Location: Madrid
(40.4000°N, 3.6830°W)
Time: 01:39:11
(UTC+02:00)

ISS - Pass Details

Date: 15 July 2019
Orbit: 409 x 418 km, 51.6° (Epoch: 23 July)

Event Time Altitude Azimuth Distance (km) Brightness Sun altitude
Exits shadow 02:20:16 15° 323° (NW) 1,238 -0.8 -28.0°
Maximum altitude 02:21:16 16° 344° (NNW) 1,165 -0.8 -28.0°
Drops below altitude 10° 02:23:26 10° 25° (NNE) 1,482 -0.2 -28.0°
Sets 02:26:06 0° 48° (NE) 2,344 0.6 -28.0°
